Location: *
(38.4303°S, 157.0822°W)
Time: 15:15:41
(UTC+00:00)

Cosmos 1869 - Pass Details

Date: 21 May 2024
Orbit: 490 x 529 km, 82.5° (Epoch: 23 June)

Event Time Altitude Azimuth Distance (km) Brightness Sun altitude
Rises 16:47:39 0° 330° (NNW) 2,568 6.6 -8.3°
Reaches altitude 10° 16:49:58 10° 317° (NW) 1,694 5.6 -7.9°
Maximum altitude 16:53:10 27° 257° (WSW) 985 4.0 -7.3°
Drops below altitude 10° 16:56:26 10° 197° (SSW) 1,720 5.5 -6.7°
Sets 16:58:48 0° 185° (S) 2,616 6.5 -6.2°
